Location: ?????????
(54.7630°N, 39.4991°E)
Time: 07:15:40
(UTC+00:00)

NOSS 0 Rocket - Pass Details

Date: 14 April 2026
Orbit: 935 x 953 km, 70.0° (Epoch: 12 May)

Event Time Altitude Azimuth Distance (km) Brightness Sun altitude
Rises 18:35:30 0° 213° (SSW) 3,619 6.8 -16.8°
Reaches altitude 10° 18:38:01 10° 213° (SSW) 2,677 6.2 -17.0°
Maximum altitude 18:44:16 90° 292° (WNW) 960 3.9 -17.6°
Drops below altitude 10° 18:50:32 10° 36° (NE) 2,686 6.5 -18.2°
Sets 18:53:04 0° 36° (NE) 3,632 7.2 -18.4°
